Weather History for Oxford, CT

Change the Weather History Date:

Wednesday, December 7, 2011

  Actual Average Record
Temperature  
Mean Temperature 50 °F -  
Max Temperature 57 °F 39 °F 73 °F (1998)
Min Temperature 42 °F 25 °F 10 °F (2002)
Degree Days  
Heating Degree Days 14    
Moisture  
Dew Point 50 °F    
Average Humidity 93    
Maximum Humidity 100    
Minimum Humidity 81    
Precipitation  
Precipitation 1.32 in - - ()
Sea Level Pressure  
Sea Level Pressure 29.74 in    
Wind  
Wind Speed 4 mph (NNE)    
Max Wind Speed 18 mph    
Max Gust Speed 29 mph    
Visibility 2 miles    
Events Fog , Rain    
Averages and records for this station are not official NWS values.
T = Trace of Precipitation, MM = Missing Value Source: NWS Daily Summary

Daily Weather History Graph

Daily Weather History Graph

Search for Another Location

Airport:

Trip Planner

Search our weather history database for the weather conditions in past years. The results will help you decide how hot, cold, wet, or windy it might be!

Date:

Astronomy

Dec. 07, 2011 Rise Set
Actual Time 7:05 AM EST 4:22 PM EST
Civil Twilight 6:33 AM EST 4:53 PM EST
Nautical Twilight 5:59 AM EST 5:28 PM EST
Astronomical Twilight 5:25 AM EST 6:01 PM EST
Moon 2:22 PM EST (12/7) 4:16 AM EST (12/7)
Length of Visible Light 10h 19m
Length of Day
9h 17m
Waxing Gibbous, 92% of the Moon is Illuminated
Dec 7
Waxing Gibbous
Dec 10
Full
Dec 17
Last Quarter
Dec 24
New
Jan 1
First Quarter

Hourly Weather History & Observations

Time (EST) Temp. Windchill Dew Point Humidity Pressure Visibility Wind Dir Wind Speed Gust Speed Precip Events Conditions
12:15 AM 57.2 °F - 55.4 °F 94% 29.93 in 0.2 mi Calm Calm - N/A   Overcast
12:55 AM 57.2 °F - 55.4 °F 94% 29.91 in 0.2 mi SW 3.5 mph - N/A   Overcast
1:16 AM 57.2 °F - 55.4 °F 94% 29.91 in 0.2 mi Calm Calm - N/A   Overcast
2:15 AM 57.2 °F - 55.4 °F 94% 29.90 in 1.0 mi South 5.8 mph - N/A   Overcast
2:35 AM 57.2 °F - 55.4 °F 94% 29.90 in 2.5 mi South 5.8 mph - N/A   Overcast
2:55 AM 57.2 °F - 55.4 °F 94% 29.91 in 1.0 mi SSW 3.5 mph - N/A   Overcast
3:15 AM 57.2 °F - 55.4 °F 94% 29.90 in 0.8 mi SW 4.6 mph - N/A   Overcast
3:35 AM 57.2 °F - 55.4 °F 94% 29.88 in 1.2 mi Calm Calm - N/A   Overcast
4:35 AM 55.4 °F - 55.4 °F 100% 29.88 in 0.5 mi Calm Calm - N/A   Overcast
4:55 AM 55.4 °F - 55.4 °F 100% 29.87 in 0.8 mi North 3.5 mph - N/A   Overcast
5:15 AM 55.4 °F - 53.6 °F 94% 29.87 in 0.8 mi Calm Calm - 0.01 in   Overcast
5:35 AM 55.4 °F - 53.6 °F 94% 29.87 in 1.2 mi North 3.5 mph - 0.01 in   Overcast
5:45 AM 55.4 °F - 53.6 °F 94% 29.87 in 0.5 mi NNE 3.5 mph - N/A Fog Light Drizzle
5:55 AM 55.4 °F - 53.6 °F 94% 29.87 in 2.0 mi Calm Calm - 0.01 in   Overcast
6:45 AM 55.4 °F - 53.6 °F 94% 29.86 in 0.2 mi Calm Calm - N/A Fog , Rain Light Rain
8:45 AM 51.8 °F - 50.0 °F 94% 29.84 in 0.5 mi NNE 4.6 mph - N/A Fog , Rain Light Rain
9:45 AM 51.8 °F - 51.8 °F 100% 29.87 in 0.1 mi NNW 4.6 mph - N/A Fog , Rain Light Rain
10:45 AM 51.8 °F - 48.2 °F 88% 29.83 in 0.5 mi Calm Calm - N/A Fog , Rain Light Rain
11:33 AM 51.8 °F - 50.0 °F 94% 29.78 in 1.5 mi Calm Calm - N/A   Overcast
11:45 AM 51.8 °F - 50.0 °F 94% 29.77 in 1.5 mi Calm Calm - N/A   Overcast
12:10 PM 53.6 °F - 51.8 °F 94% 29.77 in 0.5 mi Calm Calm - N/A Fog , Rain Light Rain
12:45 PM 51.8 °F - 50.0 °F 94% 29.75 in 0.5 mi Calm Calm - N/A Fog Drizzle
1:45 PM 53.6 °F - 51.8 °F 94% 29.72 in 0.5 mi NNE 5.8 mph - N/A Fog Drizzle
3:45 PM 51.8 °F - 50.0 °F 94% 29.68 in 1.0 mi East 6.9 mph - N/A   Light Drizzle
4:45 PM 50.0 °F - 48.2 °F 94% 29.66 in 1.0 mi East 5.8 mph - N/A   Light Drizzle
5:45 PM 50.0 °F - 48.2 °F 94% 29.64 in 1.0 mi ENE 8.1 mph - N/A Rain Light Rain
7:45 PM 48.2 °F - 46.4 °F 93% 29.57 in 1.0 mi NE 10.4 mph - N/A Rain Light Rain
8:45 PM 48.2 °F - 46.4 °F 93% 29.54 in 1.0 mi ENE 8.1 mph - N/A Rain Light Rain
8:55 PM 48.2 °F - 46.4 °F 93% 29.54 in 10.0 mi NE 6.9 mph - 0.23 in   Overcast
9:35 PM 48.2 °F - 44.6 °F 87% 29.51 in 8.0 mi NE 15.0 mph 20.7 mph 0.22 in   Overcast
9:55 PM 46.4 °F 39.8 °F 44.6 °F 93% 29.47 in 10.0 mi NNE 16.1 mph 25.3 mph 0.29 in   Overcast
10:15 PM 48.2 °F - 44.6 °F 87% 29.50 in 7.0 mi NNE 13.8 mph 21.9 mph 0.13 in   Overcast
10:35 PM 48.2 °F - 44.6 °F 87% 29.50 in 10.0 mi North 15.0 mph 19.6 mph 0.39 in   Overcast
10:55 PM 46.4 °F 41.1 °F 44.6 °F 93% 29.50 in 8.0 mi WNW 11.5 mph 25.3 mph 0.56 in   Overcast
11:15 PM 44.6 °F 36.9 °F 42.8 °F 93% 29.48 in 8.0 mi NNW 18.4 mph 21.9 mph 0.16 in   Overcast
11:35 PM 42.8 °F 37.5 °F 37.4 °F 81% 29.47 in 6.0 mi NNW 9.2 mph 28.8 mph 0.23 in   Overcast